Location: ????
(30.1475°N, 31.1342°E)
Time: 02:12:00
(UTC+00:00)

ARIANE 5 R/B - Pass Details

Date: 30 March 2023
Orbit: 748 x 794 km, 98.8° (Epoch: 29 May)

Event Time Altitude Azimuth Distance (km) Brightness Sun altitude
Rises 00:39:40 0° 43° (NE) 3,283 6.6 -39.1°
Reaches altitude 10° 00:44:13 10° 80° (E) 2,356 5.6 -38.3°
Maximum altitude 00:45:25 11° 93° (E) 2,304 5.5 -38.1°
Drops below altitude 10° 00:46:36 10° 107° (ESE) 2,355 5.4 -37.9°
Enters shadow 00:48:25 - 125° (SE) 2,616 5.5 -37.5°
